Time,TemperatureF,DewpointF,PressureIn,WindDirection,WindDirectionDegrees,WindSpeedMPH,WindSpeedGustMPH,Humidity,HourlyPrecipIn,Conditions,Clouds,dailyrainin,SoftwareType,DateUTC
2013-02-22 00:04:00,40.6,19.7,30.29,SSW,202,0.0,3.8,43,0.00,,,0.00,WUHU21523XXSP,2013-02-22 05:04:00,
2013-02-22 00:09:00,40.6,19.7,30.29,NE,45,0.9,1.3,43,0.00,,,0.00,WUHU21523XXSP,2013-02-22 05:09:00,
2013-02-22 00:14:00,40.6,19.7,30.29,NE,45,0.0,1.3,43,0.00,,,0.00,WUHU21523XXSP,2013-02-22 05:14:00,
2013-02-22 00:19:00,40.6,19.7,30.29,NE,45,0.0,0.9,43,0.00,,,0.00,WUHU21523XXSP,2013-02-22 05:19:00,
2013-02-22 00:24:00,40.6,20.3,30.29,SSW,202,0.0,0.0,44,0.00,,,0.00,WUHU21523XXSP,2013-02-22 05:24:00,
2013-02-22 00:29:00,40.5,20.1,30.30,NNE,22,2.9,2.9,44,0.00,,,0.00,WUHU21523XXSP,2013-02-22 05:29:00,
2013-02-22 00:34:00,40.5,20.1,30.31,SSE,157,0.0,2.9,44,0.00,,,0.00,WUHU21523XXSP,2013-02-22 05:34:00,
2013-02-22 00:39:00,40.3,19.9,30.32,SE,135,0.0,0.0,44,0.00,,,0.00,WUHU21523XXSP,2013-02-22 05:39:00,
2013-02-22 00:44:00,40.3,19.9,30.32,South,180,0.0,0.0,44,0.00,,,0.00,WUHU21523XXSP,2013-02-22 05:44:00,
2013-02-22 00:49:00,40.3,19.9,30.32,ENE,67,0.0,0.0,44,0.00,,,0.00,WUHU21523XXSP,2013-02-22 05:49:00,
2013-02-22 00:54:00,40.1,19.8,30.32,WSW,247,0.0,0.0,44,0.00,,,0.00,WUHU21523XXSP,2013-02-22 05:54:00,
2013-02-22 00:59:00,40.1,19.8,30.32,South,171,0.3,1.1,44,0.00,,,0.00,WUHU21523XXSP,2013-02-22 05:59:00,
2013-02-22 01:04:00,39.9,19.6,30.32,North,0,0.0,1.1,44,0.00,,,0.00,WUHU21523XXSP,2013-02-22 06:04:00,
2013-02-22 01:09:00,39.9,19.6,30.33,NNW,337,0.0,1.1,44,0.00,,,0.00,WUHU21523XXSP,2013-02-22 06:09:00,
2013-02-22 01:14:00,40.1,19.8,30.33,ENE,67,0.0,0.0,44,0.00,,,0.00,WUHU21523XXSP,2013-02-22 06:14:00,
2013-02-22 01:19:00,39.9,19.6,30.33,ENE,67,0.0,0.0,44,0.00,,,0.00,WUHU21523XXSP,2013-02-22 06:19:00,
2013-02-22 01:24:00,39.9,19.6,30.33,ENE,67,0.0,0.0,44,0.00,,,0.00,WUHU21523XXSP,2013-02-22 06:24:00,
2013-02-22 01:29:00,39.9,19.6,30.33,SSE,157,0.0,0.0,44,0.00,,,0.00,WUHU21523XXSP,2013-02-22 06:29:00,
2013-02-22 01:34:00,39.9,19.6,30.33,SSE,157,0.0,0.0,44,0.00,,,0.00,WUHU21523XXSP,2013-02-22 06:34:00,
2013-02-22 01:39:00,39.9,19.6,30.32,ENE,67,0.0,0.0,44,0.00,,,0.00,WUHU21523XXSP,2013-02-22 06:39:00,
2013-02-22 01:44:00,39.9,20.1,30.33,ENE,67,0.0,0.0,45,0.00,,,0.00,WUHU21523XXSP,2013-02-22 06:44:00,
2013-02-22 01:49:00,39.9,20.1,30.33,South,180,1.6,1.6,45,0.00,,,0.00,WUHU21523XXSP,2013-02-22 06:49:00,
2013-02-22 01:54:00,39.9,20.1,30.32,NE,45,0.0,1.6,45,0.00,,,0.00,WUHU21523XXSP,2013-02-22 06:54:00,
2013-02-22 01:59:00,39.9,20.1,30.32,NE,45,0.0,0.0,45,0.00,,,0.00,WUHU21523XXSP,2013-02-22 06:59:00,
2013-02-22 02:04:00,39.7,20.0,30.31,SSW,202,0.0,0.0,45,0.00,,,0.00,WUHU21523XXSP,2013-02-22 07:04:00,
2013-02-22 02:09:00,39.7,20.0,30.31,SSW,202,0.0,0.0,45,0.00,,,0.00,WUHU21523XXSP,2013-02-22 07:09:00,
2013-02-22 02:14:00,39.7,20.0,30.31,South,180,0.0,0.0,45,0.00,,,0.00,WUHU21523XXSP,2013-02-22 07:14:00,
2013-02-22 02:19:00,39.7,20.0,30.30,North,0,0.0,0.0,45,0.00,,,0.00,WUHU21523XXSP,2013-02-22 07:19:00,
2013-02-22 02:24:00,39.6,19.8,30.30,WNW,292,0.0,0.0,45,0.00,,,0.00,WUHU21523XXSP,2013-02-22 07:24:00,
2013-02-22 02:29:00,39.6,19.8,30.31,West,270,0.0,0.0,45,0.00,,,0.00,WUHU21523XXSP,2013-02-22 07:29:00,
2013-02-22 02:34:00,39.6,19.8,30.31,NE,45,0.0,0.0,45,0.00,,,0.00,WUHU21523XXSP,2013-02-22 07:34:00,
2013-02-22 02:39:00,39.4,19.7,30.31,ENE,67,0.0,0.0,45,0.00,,,0.00,WUHU21523XXSP,2013-02-22 07:39:00,
2013-02-22 02:44:00,39.4,19.7,30.31,SSW,202,0.0,0.0,45,0.00,,,0.00,WUHU21523XXSP,2013-02-22 07:44:00,
2013-02-22 02:49:00,39.4,19.7,30.31,SW,225,0.0,0.0,45,0.00,,,0.00,WUHU21523XXSP,2013-02-22 07:49:00,
2013-02-22 02:54:00,39.2,20.0,30.32,SSW,202,1.1,1.1,46,0.00,,,0.00,WUHU21523XXSP,2013-02-22 07:54:00,
2013-02-22 02:59:00,39.0,20.9,30.32,South,180,4.7,4.7,48,0.00,,,0.00,WUHU21523XXSP,2013-02-22 07:59:00,
2013-02-22 03:04:00,39.0,21.9,30.33,NE,45,0.0,4.7,50,0.00,,,0.00,WUHU21523XXSP,2013-02-22 08:04:00,
2013-02-22 03:09:00,38.5,22.3,30.33,East,90,0.0,0.0,52,0.00,,,0.00,WUHU21523XXSP,2013-02-22 08:09:00,
2013-02-22 03:14:00,38.1,22.4,30.33,SSE,157,0.0,2.2,53,0.00,,,0.00,WUHU21523XXSP,2013-02-22 08:14:00,
2013-02-22 03:19:00,37.9,22.7,30.33,WSW,247,0.0,2.2,54,0.00,,,0.00,WUHU21523XXSP,2013-02-22 08:19:00,
2013-02-22 03:24:00,37.4,23.1,30.32,West,270,0.0,1.8,56,0.00,,,0.00,WUHU21523XXSP,2013-02-22 08:24:00,
2013-02-22 03:29:00,37.2,23.3,30.31,SSE,157,0.0,1.8,57,0.00,,,0.00,WUHU21523XXSP,2013-02-22 08:29:00,
2013-02-22 03:34:00,37.0,23.2,30.29,NNE,22,0.0,0.0,57,0.00,,,0.00,WUHU21523XXSP,2013-02-22 08:34:00,
2013-02-22 03:39:00,36.9,23.9,30.27,NNE,22,0.0,0.0,59,0.00,,,0.00,WUHU21523XXSP,2013-02-22 08:39:00,
2013-02-22 03:44:00,36.5,24.0,30.27,North,0,0.0,0.0,60,0.00,,,0.00,WUHU21523XXSP,2013-02-22 08:44:00,
2013-02-22 03:49:00,36.3,24.2,30.28,SW,225,0.0,0.0,61,0.00,,,0.00,WUHU21523XXSP,2013-02-22 08:49:00,
2013-02-22 03:54:00,36.1,24.0,30.30,SW,225,0.0,0.0,61,0.00,,,0.00,WUHU21523XXSP,2013-02-22 08:54:00,
2013-02-22 03:59:00,36.1,24.7,30.31,SW,225,0.0,0.0,63,0.00,,,0.00,WUHU21523XXSP,2013-02-22 08:59:00,
2013-02-22 04:04:00,36.0,24.6,30.30,ENE,67,0.0,0.0,63,0.00,,,0.00,WUHU21523XXSP,2013-02-22 09:04:00,
2013-02-22 04:14:00,35.6,24.6,30.28,NNE,22,0.0,0.0,64,0.00,,,0.00,WUHU21523XXSP,2013-02-22 09:14:00,
2013-02-22 04:24:00,35.4,24.4,30.28,NE,45,0.0,0.0,64,0.00,,,0.00,WUHU21523XXSP,2013-02-22 09:24:00,
2013-02-22 04:34:00,35.4,24.8,30.28,NE,45,0.0,0.0,65,0.00,,,0.00,WUHU21523XXSP,2013-02-22 09:34:00,
2013-02-22 04:39:00,35.4,24.8,30.29,ENE,67,0.0,0.0,65,0.00,,,0.00,WUHU21523XXSP,2013-02-22 09:39:00,
2013-02-22 04:44:00,35.2,24.6,30.27,South,180,2.2,2.2,65,0.00,,,0.00,WUHU21523XXSP,2013-02-22 09:44:00,
2013-02-22 04:49:00,35.2,25.0,30.27,ENE,67,0.0,2.2,66,0.00,,,0.00,WUHU21523XXSP,2013-02-22 09:49:00,
2013-02-22 04:54:00,35.2,25.0,30.27,ENE,67,0.0,0.0,66,0.00,,,0.00,WUHU21523XXSP,2013-02-22 09:54:00,
2013-02-22 05:04:00,35.2,25.3,30.27,ENE,67,0.0,0.0,67,0.00,,,0.00,WUHU21523XXSP,2013-02-22 10:04:00,
2013-02-22 05:09:00,34.9,25.0,30.27,NE,45,0.0,0.0,67,0.00,,,0.00,WUHU21523XXSP,2013-02-22 10:09:00,
2013-02-22 05:14:00,34.9,25.3,30.27,ENE,67,0.0,0.0,68,0.00,,,0.00,WUHU21523XXSP,2013-02-22 10:14:00,
2013-02-22 05:19:00,34.7,25.2,30.26,ENE,67,0.9,0.9,68,0.00,,,0.00,WUHU21523XXSP,2013-02-22 10:19:00,
2013-02-22 05:24:00,34.7,25.2,30.27,ENE,67,0.0,0.9,68,0.00,,,0.00,WUHU21523XXSP,2013-02-22 10:24:00,
2013-02-22 05:29:00,34.7,25.2,30.27,ENE,67,0.0,0.0,68,0.00,,,0.00,WUHU21523XXSP,2013-02-22 10:29:00,
2013-02-22 05:34:00,34.7,25.2,30.27,ENE,67,0.0,0.0,68,0.00,,,0.00,WUHU21523XXSP,2013-02-22 10:34:00,
2013-02-22 05:39:00,34.7,25.2,30.28,ENE,67,0.0,0.0,68,0.00,,,0.00,WUHU21523XXSP,2013-02-22 10:39:00,
2013-02-22 05:44:00,34.7,25.5,30.27,NE,45,0.0,0.0,69,0.00,,,0.00,WUHU21523XXSP,2013-02-22 10:44:00,
2013-02-22 05:49:00,34.5,25.3,30.28,NE,45,0.0,0.0,69,0.00,,,0.00,WUHU21523XXSP,2013-02-22 10:49:00,
2013-02-22 05:54:00,34.3,25.2,30.28,NE,45,0.0,0.0,69,0.00,,,0.00,WUHU21523XXSP,2013-02-22 10:54:00,
2013-02-22 05:59:00,34.3,24.8,30.28,NE,45,0.0,0.0,68,0.00,,,0.00,WUHU21523XXSP,2013-02-22 10:59:00,
2013-02-22 06:09:00,34.3,25.2,30.28,South,180,0.0,0.0,69,0.00,,,0.00,WUHU21523XXSP,2013-02-22 11:09:00,
2013-02-22 06:14:00,34.3,25.2,30.28,West,270,0.0,0.0,69,0.00,,,0.00,WUHU21523XXSP,2013-02-22 11:14:00,
2013-02-22 06:19:00,34.2,25.0,30.27,NE,45,0.0,0.0,69,0.00,,,0.00,WUHU21523XXSP,2013-02-22 11:19:00,
2013-02-22 06:24:00,34.0,24.8,30.28,North,0,0.0,0.0,69,0.00,,,0.00,WUHU21523XXSP,2013-02-22 11:24:00,
2013-02-22 06:29:00,33.8,25.0,30.28,SSW,202,0.0,0.0,70,0.00,,,0.00,WUHU21523XXSP,2013-02-22 11:29:00,
2013-02-22 06:34:00,33.8,25.0,30.27,ENE,67,0.0,0.0,70,0.00,,,0.00,WUHU21523XXSP,2013-02-22 11:34:00,
2013-02-22 06:39:00,33.6,24.8,30.28,ENE,67,0.0,0.0,70,0.00,,,0.00,WUHU21523XXSP,2013-02-22 11:39:00,
2013-02-22 06:44:00,33.6,24.8,30.28,NNE,22,0.0,0.0,70,0.00,,,0.00,WUHU21523XXSP,2013-02-22 11:44:00,
2013-02-22 06:49:00,33.6,24.8,30.28,NE,45,0.0,0.0,70,0.00,,,0.00,WUHU21523XXSP,2013-02-22 11:49:00,
2013-02-22 06:54:00,33.6,24.8,30.28,SW,225,0.0,0.0,70,0.00,,,0.00,WUHU21523XXSP,2013-02-22 11:54:00,
2013-02-22 06:59:00,33.6,24.8,30.28,SW,225,0.0,0.0,70,0.00,,,0.00,WUHU21523XXSP,2013-02-22 11:59:00,
2013-02-22 07:04:00,33.6,24.8,30.28,South,180,0.0,0.0,70,0.00,,,0.00,WUHU21523XXSP,2013-02-22 12:04:00,
2013-02-22 07:09:00,33.6,25.1,30.28,South,180,0.0,0.0,71,0.00,,,0.00,WUHU21523XXSP,2013-02-22 12:09:00,
2013-02-22 07:14:00,33.4,25.0,30.29,South,180,0.0,0.0,71,0.00,,,0.00,WUHU21523XXSP,2013-02-22 12:14:00,
2013-02-22 07:19:00,33.4,25.0,30.29,South,180,0.0,0.0,71,0.00,,,0.00,WUHU21523XXSP,2013-02-22 12:19:00,
2013-02-22 07:24:00,33.6,25.1,30.30,South,180,0.0,0.0,71,0.00,,,0.00,WUHU21523XXSP,2013-02-22 12:24:00,
2013-02-22 07:29:00,33.6,25.1,30.30,SW,225,0.0,0.0,71,0.00,,,0.00,WUHU21523XXSP,2013-02-22 12:29:00,
2013-02-22 07:34:00,33.6,25.1,30.30,ENE,67,0.0,0.0,71,0.00,,,0.00,WUHU21523XXSP,2013-02-22 12:34:00,
2013-02-22 07:39:00,33.6,25.1,30.30,SSW,202,0.0,0.0,71,0.00,,,0.00,WUHU21523XXSP,2013-02-22 12:39:00,
2013-02-22 07:44:00,33.4,25.0,30.30,South,180,0.0,0.0,71,0.00,,,0.00,WUHU21523XXSP,2013-02-22 12:44:00,
2013-02-22 07:49:00,33.4,25.0,30.30,SSE,157,0.0,0.0,71,0.00,,,0.00,WUHU21523XXSP,2013-02-22 12:49:00,
2013-02-22 07:54:00,33.4,25.0,30.30,SSE,157,0.0,0.0,71,0.00,,,0.00,WUHU21523XXSP,2013-02-22 12:54:00,
2013-02-22 07:59:00,33.6,25.1,30.30,SSE,157,0.0,0.0,71,0.00,,,0.00,WUHU21523XXSP,2013-02-22 12:59:00,
2013-02-22 08:04:00,33.6,25.1,30.30,NNE,22,0.0,0.0,71,0.00,,,0.00,WUHU21523XXSP,2013-02-22 13:04:00,
2013-02-22 08:09:00,33.6,25.1,30.30,South,180,0.0,0.0,71,0.00,,,0.00,WUHU21523XXSP,2013-02-22 13:09:00,
2013-02-22 08:14:00,33.6,25.1,30.30,SSE,157,0.0,0.0,71,0.00,,,0.00,WUHU21523XXSP,2013-02-22 13:14:00,
2013-02-22 08:19:00,33.6,25.1,30.30,SSE,157,0.0,0.0,71,0.00,,,0.00,WUHU21523XXSP,2013-02-22 13:19:00,
2013-02-22 08:24:00,33.6,25.1,30.31,South,180,0.0,0.0,71,0.00,,,0.00,WUHU21523XXSP,2013-02-22 13:24:00,
2013-02-22 08:29:00,33.6,25.1,30.30,NE,45,0.0,0.0,71,0.00,,,0.00,WUHU21523XXSP,2013-02-22 13:29:00,
2013-02-22 08:34:00,33.4,24.7,30.31,SSW,202,0.0,0.0,70,0.00,,,0.00,WUHU21523XXSP,2013-02-22 13:34:00,
2013-02-22 08:39:00,33.4,24.7,30.31,SSW,202,0.0,0.0,70,0.00,,,0.00,WUHU21523XXSP,2013-02-22 13:39:00,
2013-02-22 08:44:00,33.4,24.7,30.31,NNW,337,0.0,0.0,70,0.00,,,0.00,WUHU21523XXSP,2013-02-22 13:44:00,
2013-02-22 08:49:00,33.4,24.7,30.32,NE,45,0.0,0.0,70,0.00,,,0.00,WUHU21523XXSP,2013-02-22 13:49:00,
2013-02-22 08:54:00,33.6,25.0,30.32,SSW,202,0.0,0.0,71,0.00,,,0.00,WUHU21523XXSP,2013-02-22 13:54:00,
2013-02-22 08:59:00,33.6,25.1,30.32,ENE,67,0.0,0.0,71,0.00,,,0.00,WUHU21523XXSP,2013-02-22 13:59:00,
2013-02-22 09:04:00,33.6,25.0,30.32,SSW,202,0.0,0.0,71,0.00,,,0.00,WUHU21523XXSP,2013-02-22 14:04:00,
2013-02-22 09:09:00,33.4,25.0,30.32,SSW,202,0.0,0.0,71,0.00,,,0.00,WUHU21523XXSP,2013-02-22 14:09:00,
2013-02-22 09:14:00,33.4,24.7,30.32,South,180,0.0,0.0,70,0.00,,,0.00,WUHU21523XXSP,2013-02-22 14:14:00,
2013-02-22 09:19:00,33.6,25.1,30.31,SSW,202,0.0,0.0,71,0.00,,,0.00,WUHU21523XXSP,2013-02-22 14:19:00,
2013-02-22 09:24:00,33.4,25.0,30.32,SE,135,0.0,0.0,71,0.00,,,0.00,WUHU21523XXSP,2013-02-22 14:24:00,
2013-02-22 09:29:00,33.4,24.7,30.31,South,180,0.0,0.0,70,0.00,,,0.00,WUHU21523XXSP,2013-02-22 14:29:00,
2013-02-22 09:34:00,33.6,24.7,30.31,ENE,67,0.0,0.0,71,0.00,,,0.00,WUHU21523XXSP,2013-02-22 14:34:00,
2013-02-22 09:39:00,33.6,25.1,30.31,South,180,0.0,0.0,71,0.00,,,0.00,WUHU21523XXSP,2013-02-22 14:39:00,
2013-02-22 09:44:00,33.6,24.8,30.31,South,180,0.0,0.0,70,0.00,,,0.00,WUHU21523XXSP,2013-02-22 14:44:00,
2013-02-22 09:49:00,33.6,25.1,30.30,South,180,0.0,0.0,71,0.00,,,0.00,WUHU21523XXSP,2013-02-22 14:49:00,
2013-02-22 09:54:00,33.6,25.1,30.29,SSW,202,0.0,0.0,71,0.00,,,0.00,WUHU21523XXSP,2013-02-22 14:54:00,
2013-02-22 09:59:00,33.6,25.1,30.29,SSW,202,0.0,0.0,71,0.00,,,0.00,WUHU21523XXSP,2013-02-22 14:59:00,
2013-02-22 10:04:00,33.6,25.1,30.29,ENE,67,0.0,0.0,71,0.00,,,0.00,WUHU21523XXSP,2013-02-22 15:04:00,
2013-02-22 10:09:00,33.6,25.1,30.30,NE,45,0.0,0.0,71,0.00,,,0.00,WUHU21523XXSP,2013-02-22 15:09:00,
2013-02-22 10:14:00,33.8,25.3,30.29,ENE,67,0.0,0.0,71,0.00,,,0.00,WUHU21523XXSP,2013-02-22 15:14:00,
2013-02-22 10:19:00,34.0,25.5,30.29,NE,45,0.0,0.0,71,0.00,,,0.00,WUHU21523XXSP,2013-02-22 15:19:00,
2013-02-22 10:24:00,34.0,25.5,30.29,North,0,0.0,0.0,71,0.00,,,0.00,WUHU21523XXSP,2013-02-22 15:24:00,
2013-02-22 10:29:00,34.0,25.5,30.29,ENE,67,0.0,0.0,71,0.00,,,0.00,WUHU21523XXSP,2013-02-22 15:29:00,
2013-02-22 10:34:00,34.0,25.5,30.29,NE,45,0.0,0.0,71,0.00,,,0.00,WUHU21523XXSP,2013-02-22 15:34:00,
2013-02-22 10:39:00,34.0,25.5,30.29,SSW,202,0.0,0.0,71,0.00,,,0.00,WUHU21523XXSP,2013-02-22 15:39:00,
2013-02-22 10:44:00,34.2,25.7,30.29,ESE,112,0.0,0.0,71,0.00,,,0.00,WUHU21523XXSP,2013-02-22 15:44:00,
2013-02-22 10:49:00,34.2,25.7,30.29,South,180,0.0,0.0,71,0.00,,,0.00,WUHU21523XXSP,2013-02-22 15:49:00,
2013-02-22 10:54:00,34.0,25.5,30.29,SSW,202,0.0,0.0,71,0.00,,,0.00,WUHU21523XXSP,2013-02-22 15:54:00,
2013-02-22 10:59:00,34.0,25.5,30.28,NNW,337,0.0,0.0,71,0.00,,,0.00,WUHU21523XXSP,2013-02-22 15:59:00,
2013-02-22 11:04:00,34.0,25.8,30.28,ENE,67,0.9,0.9,72,0.00,,,0.00,WUHU21523XXSP,2013-02-22 16:04:00,
2013-02-22 11:09:00,34.2,26.0,30.29,SW,225,0.0,3.4,72,0.00,,,0.00,WUHU21523XXSP,2013-02-22 16:09:00,
2013-02-22 11:14:00,34.2,26.0,30.29,East,90,0.0,3.4,72,0.00,,,0.00,WUHU21523XXSP,2013-02-22 16:14:00,
2013-02-22 11:19:00,34.3,26.2,30.29,SE,135,0.0,1.3,72,0.00,,,0.00,WUHU21523XXSP,2013-02-22 16:19:00,
2013-02-22 11:24:00,34.3,26.5,30.29,South,180,0.0,1.3,73,0.02,,,0.00,WUHU21523XXSP,2013-02-22 16:24:00,
2013-02-22 11:29:00,34.5,26.7,30.29,South,180,0.0,0.0,73,0.02,,,0.02,WUHU21523XXSP,2013-02-22 16:29:00,
2013-02-22 11:34:00,34.5,26.7,30.29,East,90,0.0,0.0,73,0.02,,,0.02,WUHU21523XXSP,2013-02-22 16:34:00,
2013-02-22 11:39:00,34.5,26.7,30.28,ENE,67,0.0,0.0,73,0.02,,,0.02,WUHU21523XXSP,2013-02-22 16:39:00,
2013-02-22 11:44:00,34.5,26.7,30.28,South,180,4.0,4.0,73,0.02,,,0.02,WUHU21523XXSP,2013-02-22 16:44:00,
2013-02-22 11:49:00,34.7,26.9,30.28,ESE,112,0.0,4.0,73,0.02,,,0.02,WUHU21523XXSP,2013-02-22 16:49:00,
2013-02-22 11:54:00,34.9,27.0,30.28,SSW,202,1.8,1.8,73,0.02,,,0.02,WUHU21523XXSP,2013-02-22 16:54:00,
2013-02-22 12:04:00,35.2,27.7,30.28,West,270,0.0,0.0,74,0.02,,,0.02,WUHU21523XXSP,2013-02-22 17:04:00,
2013-02-22 12:09:00,35.4,27.9,30.28,South,180,0.0,0.0,74,0.02,,,0.02,WUHU21523XXSP,2013-02-22 17:09:00,
2013-02-22 12:14:00,35.4,27.9,30.28,ESE,112,0.0,0.0,74,0.02,,,0.02,WUHU21523XXSP,2013-02-22 17:14:00,
2013-02-22 12:20:00,35.8,28.3,30.27,ENE,67,0.0,0.0,74,0.02,,,0.02,WUHU21523XXSP,2013-02-22 17:20:00,
2013-02-22 12:25:00,35.8,28.3,30.27,SSW,202,0.0,0.0,74,0.00,,,0.02,WUHU21523XXSP,2013-02-22 17:25:00,
2013-02-22 12:30:00,36.1,28.3,30.27,SSW,202,0.0,0.0,73,0.00,,,0.02,WUHU21523XXSP,2013-02-22 17:30:00,
2013-02-22 12:35:00,36.1,28.3,30.27,SSW,202,0.0,0.0,73,0.00,,,0.02,WUHU21523XXSP,2013-02-22 17:35:00,
2013-02-22 12:40:00,36.3,28.1,30.27,SSW,202,0.0,0.0,72,0.02,,,0.02,WUHU21523XXSP,2013-02-22 17:40:00,
2013-02-22 12:45:00,36.3,28.1,30.27,ENE,67,0.0,0.0,72,0.02,,,0.04,WUHU21523XXSP,2013-02-22 17:45:00,
2013-02-22 12:50:00,36.3,28.1,30.26,South,180,3.6,3.6,72,0.02,,,0.04,WUHU21523XXSP,2013-02-22 17:50:00,
2013-02-22 12:55:00,36.3,28.1,30.26,WSW,247,0.0,3.6,72,0.02,,,0.04,WUHU21523XXSP,2013-02-22 17:55:00,
2013-02-22 13:00:00,36.5,28.3,30.25,SSW,202,4.0,4.0,72,0.02,,,0.04,WUHU21523XXSP,2013-02-22 18:00:00,
2013-02-22 13:05:00,36.5,28.3,30.25,South,180,0.0,4.0,72,0.02,,,0.04,WUHU21523XXSP,2013-02-22 18:05:00,
2013-02-22 13:15:00,36.7,28.2,30.24,SSW,202,0.0,2.0,71,0.02,,,0.04,WUHU21523XXSP,2013-02-22 18:15:00,
2013-02-22 13:20:00,36.7,28.2,30.23,SE,135,0.0,0.0,71,0.02,,,0.04,WUHU21523XXSP,2013-02-22 18:20:00,
2013-02-22 13:25:00,37.0,28.5,30.24,SSW,202,0.0,0.0,71,0.02,,,0.04,WUHU21523XXSP,2013-02-22 18:25:00,
2013-02-22 13:30:00,37.2,28.5,30.24,SSW,202,1.1,1.1,71,0.02,,,0.04,WUHU21523XXSP,2013-02-22 18:30:00,
2013-02-22 13:35:00,37.2,28.7,30.24,SE,135,0.0,1.1,71,0.02,,,0.04,WUHU21523XXSP,2013-02-22 18:35:00,
2013-02-22 13:40:00,37.2,28.7,30.23,SSW,202,0.0,1.1,71,0.00,,,0.04,WUHU21523XXSP,2013-02-22 18:40:00,
2013-02-22 13:45:00,37.4,28.9,30.23,South,180,0.0,0.0,71,0.00,,,0.04,WUHU21523XXSP,2013-02-22 18:45:00,
2013-02-22 13:50:00,37.6,29.1,30.24,SSW,202,0.0,0.0,71,0.00,,,0.04,WUHU21523XXSP,2013-02-22 18:50:00,
2013-02-22 14:00:00,37.8,29.2,30.23,ENE,67,0.9,2.5,71,0.00,,,0.04,WUHU21523XXSP,2013-02-22 19:00:00,
2013-02-22 14:05:00,37.9,29.4,30.22,SSE,157,1.8,2.5,71,0.00,,,0.04,WUHU21523XXSP,2013-02-22 19:05:00,
2013-02-22 14:10:00,37.9,29.1,30.23,SSW,202,0.0,1.8,70,0.00,,,0.04,WUHU21523XXSP,2013-02-22 19:10:00,
2013-02-22 14:15:00,38.1,29.2,30.22,WNW,292,0.0,0.9,70,0.00,,,0.04,WUHU21523XXSP,2013-02-22 19:15:00,
2013-02-22 14:20:00,38.1,29.2,30.22,NE,45,0.0,0.9,70,0.00,,,0.04,WUHU21523XXSP,2013-02-22 19:20:00,
2013-02-22 14:25:00,38.1,29.2,30.22,SW,225,0.7,0.7,70,0.00,,,0.04,WUHU21523XXSP,2013-02-22 19:25:00,
2013-02-22 14:30:00,38.3,29.4,30.22,SSW,202,0.0,0.7,70,0.00,,,0.04,WUHU21523XXSP,2013-02-22 19:30:00,
2013-02-22 14:35:00,38.5,29.6,30.22,South,180,0.0,0.0,70,0.00,,,0.04,WUHU21523XXSP,2013-02-22 19:35:00,
2013-02-22 14:40:00,38.5,29.6,30.22,West,270,0.0,0.0,70,0.00,,,0.04,WUHU21523XXSP,2013-02-22 19:40:00,
2013-02-22 14:45:00,38.5,29.6,30.22,SW,225,0.0,0.0,70,0.00,,,0.04,WUHU21523XXSP,2013-02-22 19:45:00,
2013-02-22 14:50:00,38.5,29.2,30.22,South,180,1.1,1.1,69,0.00,,,0.04,WUHU21523XXSP,2013-02-22 19:50:00,
2013-02-22 14:55:00,38.5,29.6,30.22,SW,225,0.0,1.1,70,0.00,,,0.04,WUHU21523XXSP,2013-02-22 19:55:00,
2013-02-22 15:05:00,38.5,29.6,30.22,NNW,337,0.0,0.0,70,0.00,,,0.04,WUHU21523XXSP,2013-02-22 20:05:00,
2013-02-22 15:10:00,38.5,29.6,30.22,WSW,247,0.0,0.0,70,0.00,,,0.04,WUHU21523XXSP,2013-02-22 20:10:00,
2013-02-22 15:15:00,38.5,29.6,30.22,West,270,0.0,0.0,70,0.00,,,0.04,WUHU21523XXSP,2013-02-22 20:15:00,
2013-02-22 15:20:00,38.5,29.6,30.22,ENE,67,1.3,1.3,70,0.00,,,0.04,WUHU21523XXSP,2013-02-22 20:20:00,
2013-02-22 15:25:00,38.5,29.2,30.22,ENE,67,0.0,1.3,69,0.00,,,0.04,WUHU21523XXSP,2013-02-22 20:25:00,
2013-02-22 15:35:00,38.3,29.4,30.22,ENE,67,0.0,0.0,70,0.00,,,0.04,WUHU21523XXSP,2013-02-22 20:35:00,
2013-02-22 15:40:00,38.3,29.4,30.21,SSW,202,0.0,0.0,70,0.00,,,0.04,WUHU21523XXSP,2013-02-22 20:40:00,
2013-02-22 15:45:00,38.3,29.4,30.21,SE,135,0.0,0.0,70,0.00,,,0.04,WUHU21523XXSP,2013-02-22 20:45:00,
2013-02-22 15:50:00,38.3,29.4,30.21,ENE,67,0.0,0.0,70,0.00,,,0.04,WUHU21523XXSP,2013-02-22 20:50:00,
2013-02-22 15:55:00,38.3,29.4,30.22,ENE,67,0.0,0.0,70,0.00,,,0.04,WUHU21523XXSP,2013-02-22 20:55:00,
2013-02-22 16:00:00,38.3,29.4,30.21,East,90,0.0,7.8,70,0.00,,,0.04,WUHU21523XXSP,2013-02-22 21:00:00,
2013-02-22 16:05:00,38.3,29.4,30.21,SSE,157,0.7,7.8,70,0.00,,,0.04,WUHU21523XXSP,2013-02-22 21:05:00,
2013-02-22 16:15:00,38.3,29.4,30.20,South,180,0.0,2.0,70,0.00,,,0.04,WUHU21523XXSP,2013-02-22 21:15:00,
2013-02-22 16:20:00,38.3,29.4,30.20,SSW,202,0.0,0.0,70,0.00,,,0.04,WUHU21523XXSP,2013-02-22 21:20:00,
2013-02-22 16:25:00,38.3,29.4,30.20,WSW,247,0.0,1.8,70,0.00,,,0.04,WUHU21523XXSP,2013-02-22 21:25:00,
2013-02-22 16:30:00,38.3,29.4,30.21,SSW,202,0.0,1.8,70,0.00,,,0.04,WUHU21523XXSP,2013-02-22 21:30:00,
2013-02-22 16:35:00,38.3,29.0,30.20,SSW,202,0.0,0.0,69,0.00,,,0.04,WUHU21523XXSP,2013-02-22 21:35:00,
2013-02-22 16:40:00,38.3,28.9,30.21,SSW,202,0.0,0.0,69,0.00,,,0.04,WUHU21523XXSP,2013-02-22 21:40:00,
2013-02-22 16:45:00,38.3,29.0,30.21,SSE,157,0.0,0.0,69,0.00,,,0.04,WUHU21523XXSP,2013-02-22 21:45:00,
2013-02-22 16:50:00,38.1,28.9,30.21,ESE,112,0.0,0.0,69,0.00,,,0.04,WUHU21523XXSP,2013-02-22 21:50:00,
2013-02-22 16:55:00,38.3,29.0,30.20,ESE,112,0.0,0.0,69,0.00,,,0.04,WUHU21523XXSP,2013-02-22 21:55:00,
2013-02-22 17:00:00,38.3,29.4,30.20,SE,135,0.0,0.0,70,0.00,,,0.04,WUHU21523XXSP,2013-02-22 22:00:00,
2013-02-22 17:05:00,38.1,29.2,30.21,South,180,1.3,1.3,70,0.00,,,0.04,WUHU21523XXSP,2013-02-22 22:05:00,
2013-02-22 17:10:00,38.1,29.2,30.21,SSE,157,0.0,1.3,70,0.00,,,0.04,WUHU21523XXSP,2013-02-22 22:10:00,
2013-02-22 17:15:00,38.1,29.2,30.21,SSW,202,0.0,0.0,70,0.00,,,0.04,WUHU21523XXSP,2013-02-22 22:15:00,
2013-02-22 17:20:00,38.1,29.2,30.21,West,270,0.0,0.0,70,0.00,,,0.04,WUHU21523XXSP,2013-02-22 22:20:00,
2013-02-22 17:25:00,38.1,29.2,30.20,South,180,0.0,0.0,70,0.00,,,0.04,WUHU21523XXSP,2013-02-22 22:25:00,
2013-02-22 17:30:00,37.9,29.1,30.19,SE,135,0.0,0.0,70,0.00,,,0.04,WUHU21523XXSP,2013-02-22 22:30:00,
2013-02-22 17:35:00,37.9,29.1,30.20,ESE,112,0.0,0.0,70,0.00,,,0.04,WUHU21523XXSP,2013-02-22 22:35:00,
2013-02-22 17:40:00,37.9,29.1,30.18,West,270,0.0,0.0,70,0.00,,,0.04,WUHU21523XXSP,2013-02-22 22:40:00,
2013-02-22 17:45:00,37.9,29.1,30.20,NNW,337,0.0,0.0,70,0.00,,,0.04,WUHU21523XXSP,2013-02-22 22:45:00,
2013-02-22 17:50:00,37.8,28.9,30.20,ENE,67,0.0,0.9,70,0.00,,,0.04,WUHU21523XXSP,2013-02-22 22:50:00,
2013-02-22 17:55:00,37.6,28.7,30.20,South,180,0.0,0.9,70,0.00,,,0.04,WUHU21523XXSP,2013-02-22 22:55:00,
2013-02-22 18:00:00,37.6,29.1,30.20,SW,225,0.0,0.0,71,0.00,,,0.04,WUHU21523XXSP,2013-02-22 23:00:00,
2013-02-22 18:05:00,37.6,29.1,30.20,South,180,0.0,0.0,71,0.00,,,0.04,WUHU21523XXSP,2013-02-22 23:05:00,
2013-02-22 18:10:00,37.6,29.1,30.20,NE,45,1.8,1.8,71,0.00,,,0.04,WUHU21523XXSP,2013-02-22 23:10:00,
2013-02-22 18:15:00,37.4,28.9,30.20,SSW,202,0.0,1.8,71,0.00,,,0.04,WUHU21523XXSP,2013-02-22 23:15:00,
2013-02-22 18:20:00,37.4,28.9,30.20,ENE,67,0.0,0.0,71,0.00,,,0.04,WUHU21523XXSP,2013-02-22 23:20:00,
2013-02-22 18:25:00,37.2,28.7,30.20,SE,135,0.0,0.0,71,0.00,,,0.04,WUHU21523XXSP,2013-02-22 23:25:00,
2013-02-22 18:30:00,37.2,28.7,30.20,SSE,157,0.0,2.2,71,0.00,,,0.04,WUHU21523XXSP,2013-02-22 23:30:00,
2013-02-22 18:35:00,37.2,29.0,30.20,South,180,0.0,2.2,72,0.00,,,0.04,WUHU21523XXSP,2013-02-22 23:35:00,
2013-02-22 18:40:00,37.2,29.0,30.20,ENE,67,0.0,0.4,72,0.00,,,0.04,WUHU21523XXSP,2013-02-22 23:40:00,
2013-02-22 18:45:00,37.2,29.0,30.20,SSW,202,0.0,0.0,72,0.00,,,0.04,WUHU21523XXSP,2013-02-22 23:45:00,
2013-02-22 18:50:00,37.2,29.0,30.20,South,180,0.0,0.0,72,0.00,,,0.04,WUHU21523XXSP,2013-02-22 23:50:00,
2013-02-22 18:55:00,37.2,29.0,30.20,SSW,202,0.0,0.0,72,0.00,,,0.04,WUHU21523XXSP,2013-02-22 23:55:00,
2013-02-22 19:00:00,37.2,29.0,30.20,NNE,22,0.0,0.0,72,0.00,,,0.04,WUHU21523XXSP,2013-02-23 00:00:00,
2013-02-22 19:05:00,37.0,28.9,30.20,SSW,202,0.0,0.0,72,0.00,,,0.04,WUHU21523XXSP,2013-02-23 00:05:00,
2013-02-22 19:10:00,37.0,28.9,30.20,SSE,157,0.0,0.0,72,0.00,,,0.04,WUHU21523XXSP,2013-02-23 00:10:00,
2013-02-22 19:15:00,37.0,29.2,30.20,West,270,0.0,0.0,73,0.00,,,0.04,WUHU21523XXSP,2013-02-23 00:15:00,
2013-02-22 19:20:00,37.0,28.9,30.20,NNE,22,0.0,0.0,72,0.00,,,0.04,WUHU21523XXSP,2013-02-23 00:20:00,
2013-02-22 19:25:00,37.0,29.2,30.20,NNE,22,0.0,0.0,73,0.00,,,0.04,WUHU21523XXSP,2013-02-23 00:25:00,
2013-02-22 19:30:00,37.0,29.2,30.20,NW,315,0.0,0.0,73,0.00,,,0.04,WUHU21523XXSP,2013-02-23 00:30:00,
2013-02-22 19:35:00,37.0,29.2,30.19,NW,315,0.0,0.0,73,0.00,,,0.04,WUHU21523XXSP,2013-02-23 00:35:00,
2013-02-22 19:40:00,37.0,29.2,30.18,WSW,247,0.0,0.0,73,0.00,,,0.04,WUHU21523XXSP,2013-02-23 00:40:00,
2013-02-22 19:45:00,36.9,28.7,30.20,SW,225,0.0,0.0,72,0.00,,,0.04,WUHU21523XXSP,2013-02-23 00:45:00,
2013-02-22 19:50:00,36.9,28.7,30.19,SSE,157,0.0,0.0,72,0.00,,,0.04,WUHU21523XXSP,2013-02-23 00:50:00,
2013-02-22 19:55:00,36.9,28.7,30.18,SSE,157,0.0,0.0,72,0.00,,,0.04,WUHU21523XXSP,2013-02-23 00:55:00,
2013-02-22 20:00:00,36.7,28.8,30.19,NNW,337,0.0,0.0,73,0.00,,,0.04,WUHU21523XXSP,2013-02-23 01:00:00,
2013-02-22 20:05:00,36.9,29.0,30.19,South,180,0.0,0.0,73,0.00,,,0.04,WUHU21523XXSP,2013-02-23 01:05:00,
2013-02-22 20:10:00,36.7,28.8,30.18,South,180,0.0,0.0,73,0.00,,,0.04,WUHU21523XXSP,2013-02-23 01:10:00,
2013-02-22 20:15:00,36.9,29.0,30.19,SSE,157,0.0,0.0,73,0.00,,,0.04,WUHU21523XXSP,2013-02-23 01:15:00,
2013-02-22 20:25:00,36.9,29.0,30.19,NE,45,0.0,0.0,73,0.00,,,0.04,WUHU21523XXSP,2013-02-23 01:25:00,
2013-02-22 20:30:00,36.7,29.2,30.19,SSW,202,0.0,0.0,74,0.00,,,0.04,WUHU21523XXSP,2013-02-23 01:30:00,
2013-02-22 20:35:00,36.7,29.2,30.18,South,180,0.0,0.0,74,0.00,,,0.04,WUHU21523XXSP,2013-02-23 01:35:00,
2013-02-22 20:40:00,36.7,29.2,30.19,WSW,247,0.0,0.0,74,0.00,,,0.04,WUHU21523XXSP,2013-02-23 01:40:00,
2013-02-22 20:45:00,36.7,29.2,30.20,ESE,112,0.0,0.0,74,0.00,,,0.04,WUHU21523XXSP,2013-02-23 01:45:00,
2013-02-22 20:50:00,36.7,29.2,30.19,SW,225,0.0,0.0,74,0.00,,,0.04,WUHU21523XXSP,2013-02-23 01:50:00,
2013-02-22 20:55:00,36.7,29.2,30.19,SSW,202,0.0,0.0,74,0.00,,,0.04,WUHU21523XXSP,2013-02-23 01:55:00,
2013-02-22 21:00:00,36.7,29.2,30.19,SSW,202,0.0,0.0,74,0.00,,,0.04,WUHU21523XXSP,2013-02-23 02:00:00,
2013-02-22 21:05:00,36.7,29.2,30.18,NE,45,0.0,0.0,74,0.00,,,0.04,WUHU21523XXSP,2013-02-23 02:05:00,
2013-02-22 21:10:00,36.7,29.2,30.19,NE,45,0.0,0.0,74,0.00,,,0.04,WUHU21523XXSP,2013-02-23 02:10:00,
2013-02-22 21:15:00,36.7,29.2,30.19,ENE,67,0.0,0.0,74,0.00,,,0.04,WUHU21523XXSP,2013-02-23 02:15:00,
2013-02-22 21:20:00,36.5,29.0,30.19,South,180,0.0,0.0,74,0.00,,,0.04,WUHU21523XXSP,2013-02-23 02:20:00,
2013-02-22 21:25:00,36.5,29.0,30.19,SSE,157,0.0,0.0,74,0.00,,,0.04,WUHU21523XXSP,2013-02-23 02:25:00,
2013-02-22 21:30:00,36.5,29.3,30.19,NE,45,0.4,0.4,75,0.00,,,0.04,WUHU21523XXSP,2013-02-23 02:30:00,
2013-02-22 21:35:00,36.5,29.3,30.18,South,180,0.0,0.4,75,0.00,,,0.04,WUHU21523XXSP,2013-02-23 02:35:00,
2013-02-22 21:40:00,36.5,29.3,30.19,South,180,0.0,0.4,75,0.00,,,0.04,WUHU21523XXSP,2013-02-23 02:40:00,
2013-02-22 21:45:00,36.5,29.3,30.20,East,90,0.0,0.0,75,0.00,,,0.04,WUHU21523XXSP,2013-02-23 02:45:00,
2013-02-22 21:50:00,36.5,29.3,30.19,East,90,0.0,0.0,75,0.00,,,0.04,WUHU21523XXSP,2013-02-23 02:50:00,
2013-02-22 21:55:00,36.5,29.3,30.20,East,90,0.0,0.0,75,0.00,,,0.04,WUHU21523XXSP,2013-02-23 02:55:00,
2013-02-22 22:00:00,36.5,29.3,30.19,SSE,157,0.0,0.0,75,0.00,,,0.04,WUHU21523XXSP,2013-02-23 03:00:00,
2013-02-22 22:05:00,36.5,29.3,30.19,SSE,157,0.0,0.0,75,0.00,,,0.04,WUHU21523XXSP,2013-02-23 03:05:00,
2013-02-22 22:10:00,36.5,29.3,30.20,SSE,157,0.0,0.0,75,0.00,,,0.04,WUHU21523XXSP,2013-02-23 03:10:00,
2013-02-22 22:15:00,36.3,29.4,30.19,NE,45,0.0,0.0,76,0.00,,,0.04,WUHU21523XXSP,2013-02-23 03:15:00,
2013-02-22 22:20:00,36.5,29.6,30.19,SSW,202,0.0,0.0,76,0.00,,,0.04,WUHU21523XXSP,2013-02-23 03:20:00,
2013-02-22 22:25:00,36.5,29.6,30.20,East,90,0.0,0.0,76,0.00,,,0.04,WUHU21523XXSP,2013-02-23 03:25:00,
2013-02-22 22:30:00,36.5,29.6,30.20,NNE,22,0.0,0.0,76,0.00,,,0.04,WUHU21523XXSP,2013-02-23 03:30:00,
2013-02-22 22:35:00,36.5,29.6,30.20,SW,225,0.0,0.0,76,0.00,,,0.04,WUHU21523XXSP,2013-02-23 03:35:00,
2013-02-22 22:40:00,36.5,29.6,30.20,South,180,0.0,0.0,76,0.00,,,0.04,WUHU21523XXSP,2013-02-23 03:40:00,
2013-02-22 22:45:00,36.5,29.6,30.19,South,180,0.0,0.0,76,0.00,,,0.04,WUHU21523XXSP,2013-02-23 03:45:00,
2013-02-22 22:50:00,36.5,29.6,30.19,South,180,0.0,0.0,76,0.00,,,0.04,WUHU21523XXSP,2013-02-23 03:50:00,
2013-02-22 22:55:00,36.3,29.4,30.19,North,0,0.0,0.0,76,0.00,,,0.04,WUHU21523XXSP,2013-02-23 03:55:00,
2013-02-22 23:00:00,36.3,29.4,30.19,North,0,0.0,0.0,76,0.00,,,0.04,WUHU21523XXSP,2013-02-23 04:00:00,
2013-02-22 23:05:00,36.5,29.6,30.19,North,0,0.0,0.0,76,0.00,,,0.04,WUHU21523XXSP,2013-02-23 04:05:00,
2013-02-22 23:10:00,36.3,29.4,30.19,North,0,0.0,0.0,76,0.00,,,0.04,WUHU21523XXSP,2013-02-23 04:10:00,
2013-02-22 23:15:00,36.3,29.4,30.17,North,0,0.0,0.0,76,0.00,,,0.04,WUHU21523XXSP,2013-02-23 04:15:00,
2013-02-22 23:20:00,36.5,29.6,30.17,North,0,0.0,0.0,76,0.00,,,0.04,WUHU21523XXSP,2013-02-23 04:20:00,
2013-02-22 23:25:00,36.5,29.6,30.17,North,0,0.0,0.0,76,0.00,,,0.04,WUHU21523XXSP,2013-02-23 04:25:00,
2013-02-22 23:30:00,36.5,29.6,30.16,North,0,0.0,0.0,76,0.00,,,0.04,WUHU21523XXSP,2013-02-23 04:30:00,
2013-02-22 23:35:00,36.5,29.6,30.16,North,0,0.0,0.0,76,0.00,,,0.04,WUHU21523XXSP,2013-02-23 04:35:00,
2013-02-22 23:40:00,36.5,29.6,30.16,North,0,0.0,0.0,76,0.00,,,0.04,WUHU21523XXSP,2013-02-23 04:40:00,
2013-02-22 23:45:00,36.5,29.6,30.15,NNE,22,0.0,0.0,76,0.00,,,0.04,WUHU21523XXSP,2013-02-23 04:45:00,
2013-02-22 23:50:00,36.5,29.6,30.15,NNE,22,0.0,0.0,76,0.00,,,0.04,WUHU21523XXSP,2013-02-23 04:50:00,
2013-02-22 23:55:00,36.5,29.6,30.15,NNE,22,0.0,0.0,76,0.00,,,0.04,WUHU21523XXSP,2013-02-23 04:55:00,